sat.trackr.live / text

‹ back to catalog

STARLINK-35601

NORAD 66149 · 2025-240D

PAYLOAD ACTIVE UNKNOWN

§ Identity

Operator
Country
US
Launch date
2025-10-25
Launch site
AFWTR
Launch vehicle
Mass (kg)
RCS (m²)

Purposes: comms

External: N2YO · Heavens-Above · Gunter

§ Orbital elements

Epoch: 2026-05-25T04:49:38.178912Z

Period
94.10 min
Inclination
53.1580°
Eccentricity
0.0001188
Mean motion
15.30208876 rev/d
Perigee alt
474.4 km
Apogee alt
476.0 km
Semi-major
6,853.3 km
B*
9.2462e-4
RAAN
67.3592°
Arg perigee
91.9086°
Mean anomaly
268.2051°
Rev number
3,370

§ Raw data

STARLINK-356011 66149U 25240D   26145.20113633  .00027133  00000+0  92462-3 0  99972 66149  53.1580  67.3592 0001188  91.9086 268.2051 15.30208876 33700

JSON: /api/v1/satellites/66149 · /tle

For live sub-satellite position, see the globe view (requires WebGL).

§ Visibility from observer

Set your observer location to see the next 7 days of passes ≥ 10°. The values pass through the URL so the page stays shareable.

No JS? Fill the form by hand. The geolocation button needs JavaScript.